Regional Weather Roundup
Issued by NWS Grand Forks, ND

Home | Current Version | Previous Version | Graphics & Text | Print | Product List | Glossary On
Versions: 1 2 3 4 5 6 7 8 9 10 11 12 13 14 15 16 17 18 19 20 21 22 23 24 25 26 27 28 29 30 31 32 33 34 35 36 37 38 39 40 41 42 43 44 45 46 47 48 49 50
000
ASUS43 KFGF 301410
RWRFGF
PRAIRIE TO PINES  WEATHER ROUNDUP
NATIONAL WEATHER SERVICE EASTERN NORTH DAKOTA/GRAND FORKS ND
900 AM CDT SUN APR 30 2017

 **SATELLITE DATA USED TO AUGMENT SKY COVER AT AUTOMATED STATIONS**
 *****  WEATHER ACROSS EASTERN NORTH DAKOTA  *****

CITY           SKY/WX    TMP DP  RH WIND       PRES   REMARKS
GRAND FORKS    FAIR      48  32  53 S8        30.13F
GRAND FRKS AFB FAIR      47  32  55 S7        30.13F
DEVILS LAKE    FAIR      50  28  43 SW3       30.10F HAZE
FARGO          FAIR      48  24  39 E8        30.12S
WAHPETON ARPT  FAIR      43  27  52 NE7       30.11S
$$

 ***** WEATHER ACROSS CENTRAL AND WESTERN NORTH DAKOTA  *****

CITY           SKY/WX    TMP DP  RH WIND       PRES   REMARKS
BISMARCK       FAIR      43  30  60 CALM      30.09F
MINOT          FAIR      51  25  36 S5        30.03F
JAMESTOWN      FAIR      47  32  56 NE6       30.10F
MINOT AFB      FAIR      54  24  31 SW10      30.02F
GARRISON         N/A     45  23  42 S3        30.06F
WILLISTON      FAIR      47  28  47 SW7       30.02F
DICKINSON      FAIR      47  25  42 W7        30.03F
HETTINGER      FAIR      42  26  53 CALM      30.06F
$$

 *****  OTHER AIRPORT OBSERVATIONS IN OUR AREA  *****

CITY           SKY/WX    TMP DP  RH WIND       PRES   REMARKS
WALHALLA       NOT AVBL
GRAFTON AIRPOR FAIR      46  34  61 S9        30.15F
VALLEY CITY AR FAIR      46  30  53 VRB5      30.12F
CANDO          NOT AVBL
CAVALIER APRT  FAIR      46  32  57 S9        30.11F
GWINNER        SUNNY     45  28  53 MISG      30.10S
SHEYENNE NWR     N/A     47  26  43 E7        29.95S
ROLLA          FAIR      46  27  46 SW10      30.07F
 ***** THE ABOVE OBSERVATIONS ARE NON NWS ARE NOT QUALITY
       CONTROLLED AND MAY MIS-REPORT RAIN FOR SNOW...
$$

  *****  WEATHER ACROSS NORTHERN MINNESOTA  *****

CITY           SKY/WX    TMP DP  RH WIND       PRES   REMARKS
FLAG ISLAND    FAIR      39  28  65 SE10      30.17F
WARROAD        FAIR      45  30  57 S6        30.17F
ROSEAU         FAIR      46  28  49 S8        30.16F
HALLOCK        FAIR      46  30  53 S10       30.14S
THF RVR FALLS  FAIR      46  23  40 SE8       30.15F
BAUDETTE       FAIR      43  23  45 S6        30.17F
WASKISH        FAIR      43  25  49 NE5       30.16F
CROOKSTON      FAIR      46  27  46 SE6       30.14F
STEPHEN NDAWN    N/A     48  27  43 S10         N/A
GREENBUSH NDAW   N/A     46  28  49 S9          N/A
$$
  *****  WEATHER ACROSS CENTRAL AND WEST MINNESOTA  *****

CITY           SKY/WX    TMP DP  RH WIND       PRES   REMARKS
FOSSTON        FAIR      45  21  39 E8        30.14F
BEMIDJI        FAIR      44  22  42 NE8       30.14S
PARK RAPIDS    FAIR      44  15  31 E13       30.12R
ELBOW LAKE     FAIR      44  24  47 NE9       30.08F
WADENA         FAIR      41  19  42 E12       30.11R
DETROIT LAKES  FAIR      43  19  39 E7        30.12R
MOORHEAD       FAIR      45  25  45 E5        30.13S
FERGUS FALLS   FAIR      45  21  39 E8        30.10S
MORRIS MN      FAIR      43  25  49 NE9       30.06F
STAPLES        FAIR      39  18  41 NE5       30.11R
$$
  *****  WEATHER ELSEWHERE ACROSS MINNESOTA  *****

CITY           SKY/WX    TMP DP  RH WIND       PRES   REMARKS
DULUTH         FAIR      42  19  39 E18G26    30.09F
INTRNTL FALLS  FAIR      44  19  36 E7        30.18F
ELY            FAIR      39  18  41 E8        30.16F
CLOQUET        FAIR      41  10  28 E14G22    30.09F
WHEATON        FAIR      45  21  39 NE8       30.10F
BRAINERD       FAIR      39  20  46 E9        30.12R
HIBBING        FAIR      41  16  36 E13G20    30.12F
ALEXANDRIA     FAIR      40  22  48 NE12      30.08R
SAINT CLOUD    PTSUNNY   40  23  50 NE7       30.07R
MINNEAPOLIS    LGT RAIN  43  27  53 NE8       30.02S
$$

  *****  WEATHER ACROSS SOUTH DAKOTA  *****

CITY           SKY/WX    TMP DP  RH WIND       PRES   REMARKS
SIOUX FALLS    LGT RAIN  38  38 100 NE13      29.97S
BROOKINGS      FAIR      41  26  55 NE9       30.01R
WATERTOWN      FAIR      40  26  57 NE13      30.03F
HURON          FAIR      43  27  53 NE10      30.03F
SISSETON         N/A     46  27  47 E7        30.08F
ABERDEEN       FAIR      42  31  64 N5        30.08F
MITCHELL       FAIR      42  27  55 N15       30.00F
PIERRE         FAIR      40  26  57 N10       30.03F
MOBRIDGE       FAIR      45  26  47 CALM      30.06F
RAPID CITY     FAIR      45  22  40 N14       30.05F
$$

  *****  SOME WEATHER IN NEARBY STATES *****

CITY           SKY/WX    TMP DP  RH WIND       PRES   REMARKS
GLASGOW MT     FAIR      46  30  53 SE17      29.92F
GREAT FALLS MT FAIR      47  31  53 SW16      29.93S
CHEYENNE WY    FAIR      34  17  50 N30G38    29.98F WCI  20
SCOTTSBLUFF NE FAIR      36  24  62 W9        30.00F
OMAHA NE       LGT RAIN  40  35  83 NE22G32   29.76S VSB 1
DES MOINES IA  DRIZZLE   42  40  92 NE15G21   29.81R
DAVENPORT IA   CLOUDY    42  40  92 NE14      29.81F
CHICAGO IL     LGT RAIN  43  41  93 NE17      29.79F FOG
EAU CLAIRE WI  CLOUDY    43  27  53 E13G23    30.01R
LA CROSSE WI   CLOUDY    44  33  65 E13G21    29.96R
$$

  *****  SOME NATIONAL WEATHER *****

CITY           SKY/WX    TMP DP  RH WIND       PRES   REMARKS
LA GUARDIA NY  CLOUDY    60  40  47 NE12      30.24S
RALEIGH NC     PTSUNNY   74  66  76 SW13G23   30.21S
ATLANTA GA     CLOUDY    71  67  87 S12       30.12R
NEW ORLEANS LA CLOUDY    80  74  81 SE22G32   29.83R
OKLAHOMA CITY  DRIZZLE   43  38  82 SW17G23   29.60R
ALBUQUERQUE NM FAIR      37  35  92 SW5       30.06R
SALT LAKE CITY CLOUDY    44  31  60 SE12      30.19R
LOS ANGELES CA FAIR      61  35  37 E3        30.06R
BOISE ID       CLOUDY    46  33  60 CALM      30.13R
SEATTLE WA     CLOUDY    47  43  86 SW10      30.19R
$$

*** WEATHER ACROSS MANITOBA...SASKATCHEWAN AND ONTARIO ***
                ***ONTARIO***

CITY           SKY/WX    TMP DP  RH WIND       PRES   REMARKS
GERALDTON      PTSUNNY   41  16  36 SE5       30.29F
THUNDER BAY    PTSUNNY   41  27  56 E13       30.23F
SIOUX LOOKOUT  PTSUNNY   43  19  39 S5        30.23F
TORONTO        CLOUDY    39  30  70 E14G30    30.22R
BIG TROUT LK   SUNNY     39  21  48 SE5       30.16F
PICKLE LAKE    PTSUNNY   43  19  39 S7        30.22F
DRYDEN         MOSUNNY   41  19  42 S8        30.20F
KENORA         PTSUNNY   43  23  45 S9        30.17F
$$
                *** MANITOBA***

CITY           SKY/WX    TMP DP  RH WIND       PRES   REMARKS
BRANDON        PTSUNNY   48  28  46 SW12      30.03F
DAUPHIN        PTSUNNY   46  34  61 VRB3      30.02S
ISLAND LAKE    MOSUNNY   45  25  45 W9        30.05R
PILOT MOUND      N/A     52  27  37 S13         N/A
THE PAS        MOSUNNY   39  34  81 VRB2      30.02S
THOMPSON       MOSUNNY   39  23  52 VRB2      30.06F
WINNIPEG       MOSUNNY   52  28  40 S14G20    30.09F
LYNN LAKE      SUNNY     39  25  56 S3        30.02F
CHURCHILL      PTSUNNY   36  25  64 SW16      30.04F
GILLAM         PTSUNNY   36  19  51 NE5       30.09F
$$
                ***SASKATCHEWAN***

CITY           SKY/WX    TMP DP  RH WIND       PRES   REMARKS
ESTEVAN        MOSUNNY   48  32  53 S14       29.99F
KINDERSLEY     PTSUNNY   39  37  93 SE10      29.80F
LLOYDMINSTER   PTSUNNY   37  36  93 SE9       29.82F
PRINCE ALBERT  MOSUNNY   39  36  87 E8        29.93F
REGINA         CLOUDY    43  37  81 SE5       29.92F
YORKTON        SUNNY     46  37  71 E7        29.95F
N. BATTLEFORD  SUNNY     41  39  93 E10       29.87F
LA RONGE       SUNNY     37  27  65 SE7       29.98F
SASKATOON      PTSUNNY   45  37  76 E9        29.89F
SWIFT CURRENT  PTSUNNY   43  37  81 SW12G21   29.84S
$$
NOTE: THESE ARE AUTOMATED STATIONS WITH LIMITED QUALITY CONTROL
      "FAIR" INDICATES FEW OR NO CLOUDS BELOW 12,000 FEET WITH NO
      SIGNIFICANT WEATHER AND/OR OBSTRUCTIONS TO VISIBILITY.
      SKY/WX - SKY CONDITION AND SIGNIFICANT WEATHER.
      TMP - AIR TEMPERATURE.    DP   - DEWPOINT TEMPERATURE.
      RH  - RELATIVE HUMIDITY.  PRES - PRESSURE.
      HX  - HEAT INDEX.         WCI  - WIND CHILL INDEX.
$




USA.gov is the U.S. government's official web portal to all federal, state and local government web resources and services.